Time,TemperatureF,DewpointF,PressureIn,WindDirection,WindDirectionDegrees,WindSpeedMPH,WindSpeedGustMPH,Humidity,HourlyPrecipIn,Conditions,Clouds,dailyrainin,SoftwareType,DateUTC
2013-05-04 01:00:00,40.0,32.0,30.09,East,100,23.0,-999.0,74,-99.99,,,-99.99,,2013-05-04 06:00:00,
2013-05-04 02:00:00,40.0,33.0,30.10,East,80,21.0,-999.0,76,-99.99,,,-99.99,,2013-05-04 07:00:00,
2013-05-04 04:00:00,39.0,33.0,30.11,NNE,30,24.0,-999.0,79,-99.99,,,-99.99,,2013-05-04 09:00:00,
2013-05-04 05:00:00,39.0,32.0,30.12,NE,40,23.0,-999.0,75,-99.99,,,-99.99,,2013-05-04 10:00:00,
2013-05-04 06:00:00,38.0,32.0,30.14,NNE,20,25.0,-999.0,77,-99.99,,,-99.99,,2013-05-04 11:00:00,
2013-05-04 07:00:00,40.0,32.0,30.16,North,10,18.0,-999.0,72,-99.99,,,-99.99,,2013-05-04 12:00:00,
2013-05-04 08:00:00,42.0,34.0,30.17,NE,40,17.0,-999.0,72,-99.99,,,-99.99,,2013-05-04 13:00:00,
2013-05-04 09:00:00,44.0,34.0,30.18,NE,40,16.0,-999.0,66,-99.99,,,-99.99,,2013-05-04 14:00:00,
2013-05-04 10:00:00,49.0,34.0,30.20,NNE,30,15.0,-999.0,56,-99.99,,,-99.99,,2013-05-04 15:00:00,
2013-05-04 11:00:00,52.0,34.0,30.19,NNE,30,15.0,-999.0,49,-99.99,,,-99.99,,2013-05-04 16:00:00,
2013-05-04 12:00:00,57.0,32.0,30.21,NNE,20,14.0,-999.0,38,-99.99,,,-99.99,,2013-05-04 17:00:00,
2013-05-04 13:00:00,63.0,25.0,30.18,NNE,20,13.0,-999.0,23,-99.99,,,-99.99,,2013-05-04 18:00:00,
2013-05-04 14:00:00,64.0,29.0,30.18,North,10,13.0,-999.0,26,-99.99,,,-99.99,,2013-05-04 19:00:00,
2013-05-04 15:00:00,59.0,31.0,30.17,SSE,160,13.0,-999.0,34,-99.99,,,-99.99,,2013-05-04 20:00:00,
2013-05-04 16:00:00,60.0,28.0,30.14,NE,40,8.0,-999.0,29,-99.99,,,-99.99,,2013-05-04 21:00:00,
2013-05-04 17:00:00,45.0,29.0,30.13,NNE,20,13.0,-999.0,52,-99.99,,,-99.99,,2013-05-04 22:00:00,
2013-05-04 18:00:00,49.0,32.0,30.12,NNE,30,18.0,-999.0,51,-99.99,,,-99.99,,2013-05-04 23:00:00,
2013-05-04 19:00:00,48.0,31.0,30.09,NNE,20,18.0,-999.0,50,-99.99,,,-99.99,,2013-05-05 00:00:00,
2013-05-04 21:00:00,43.0,30.0,30.12,NE,40,17.0,-999.0,60,-99.99,,,-99.99,,2013-05-05 02:00:00,
2013-05-04 22:52:00,42.0,30.0,30.12,NNE,30,13.0,-999.0,62,-99.99,,,-99.99,,2013-05-05 03:52:00,
2013-05-04 23:52:00,40.0,32.0,30.11,NNE,20,13.0,-999.0,72,-99.99,,,-99.99,,2013-05-05 04:52:00,